FW3268 Weather Reports


Display with metric or nautical units.
time (UTC)temp
F
wind
direction
speed
MPH
gust
MPH
rain 1hr
in
rain 24hr
in
rain mn
in
humidity
%
barometer
mb
20260906131459 66 43 0.0 0.0 0.00 0.00 0.00 88 1018.2
20260906130002 65 55 0.0 0.0 0.00 0.00 0.00 89 1018.3
20260906124459 64 51 0.0 0.0 0.00 0.00 0.00 91 1017.9
20260906123000 64 41 0.0 0.0 0.00 0.00 0.00 92 1017.9
20260906121459 63 53 0.0 0.0 0.00 0.00 0.00 94 1017.8
20260906120002 63 52 0.0 0.0 0.00 0.00 0.00 94 1017.6
20260906114500 62 53 0.0 0.0 0.00 0.00 0.00 93 1017.2
20260906113000 62 51 0.0 0.0 0.00 0.00 0.00 93 1016.9
20260906111459 63 51 0.0 0.0 0.00 0.00 0.00 93 1016.6
20260906110003 63 51 0.0 0.0 0.00 0.00 0.00 93 1016.4
20260906104500 64 51 0.0 0.0 0.00 0.00 0.00 92 1016.5
20260906101500 64 53 0.0 0.0 0.00 0.00 0.00 92 1016.1
20260906100002 64 53 0.0 0.0 0.00 0.00 0.00 93 1016.0
20260906094500 65 53 0.0 0.0 0.00 0.00 0.00 92 1015.9
20260906093000 65 58 0.0 0.0 0.00 0.00 0.00 92 1015.8
20260906091459 65 58 0.0 0.0 0.00 0.00 0.00 91 1015.8
20260906090002 65 63 0.0 0.0 0.00 0.00 0.00 91 1015.7
20260906084459 65 60 0.0 0.0 0.00 0.00 0.00 91 1015.9
20260906081459 66 55 0.0 0.0 0.00 0.00 0.00 92 1015.5
20260906080003 66 56 0.0 0.0 0.00 0.00 0.00 92 1015.5
20260906073000 66 53 0.0 0.0 0.00 0.00 0.00 93 1015.5
20260906064459 66 55 0.0 0.0 0.00 0.00 0.00 93 1015.6
20260906063000 67 52 0.0 0.0 0.00 0.00 0.00 92 1015.7
20260906061459 68 51 0.0 0.0 0.00 0.00 0.00 91 1015.6
20260906060003 68 53 0.0 0.0 0.00 0.00 0.00 92 1015.3
20260906054500 68 65 0.0 0.0 0.00 0.00 0.00 93 1015.2
20260906053000 68 56 0.0 0.0 0.00 0.00 0.00 93 1015.3
20260906051459 69 56 0.0 0.0 0.00 0.00 0.00 93 1015.2
20260906050004 69 56 0.0 0.0 0.00 0.00 0.00 93 1015.2
20260906044501 70 56 0.0 0.0 0.00 0.00 0.00 93 1014.9
20260906043001 70 56 0.0 0.0 0.00 0.00 0.00 93 1014.8
20260906041501 71 60 0.0 0.0 0.00 0.00 0.00 93 1014.8
20260906040006 71 52 0.0 0.0 0.00 0.00 0.00 92 1014.8
20260906034501 72 59 0.0 0.0 0.00 0.00 0.00 92 1015.0
20260906033002 72 78 0.0 0.0 0.00 0.00 0.00 92 1014.9
20260906031502 73 49 0.0 0.0 0.00 0.00 0.00 92 1015.0
20260906030004 73 68 0.0 0.0 0.00 0.00 0.00 91 1014.5
20260906024501 73 64 0.0 0.0 0.00 0.00 0.00 91 1014.5
20260906023002 74 60 0.0 0.0 0.00 0.00 0.00 92 1014.2
20260906021502 74 73 0.0 0.0 0.00 0.00 0.00 93 1014.1
20260906020005 74 69 0.0 0.0 0.00 0.00 0.00 94 1014.1
20260906013001 75 72 0.0 0.0 0.00 0.00 0.00 93 1013.5
20260906011501 75 51 0.0 0.0 0.00 0.00 0.00 92 1013.1
20260906010005 76 63 0.0 0.0 0.00 0.00 0.00 90 1012.9
20260906004502 77 49 0.0 0.0 0.00 0.00 0.00 88 1012.7
20260906003002 79 41 0.0 0.0 0.00 0.00 0.00 89 1012.7
20260906001501 79 122 0.0 0.0 0.00 0.00 0.00 88 1012.2
20260905234507 80 125 0.0 0.0 0.00 0.00 0.00 84 1012.5
20260905231501 82 124 0.0 0.0 0.00 0.00 0.00 80 1012.3
20260905230003 83 124 0.0 0.0 0.00 0.00 0.00 80 1012.1
20260905224502 83 130 0.0 0.0 0.00 0.00 0.00 77 1012.1
20260905223000 83 130 0.0 0.0 0.00 0.00 0.00 77 1012.2
20260905221501 80 129 0.0 0.0 0.00 0.00 0.00 80 1012.2
20260905220003 80 125 0.0 0.0 0.00 0.00 0.00 80 1012.3
20260905214500 80 160 0.0 0.0 0.00 0.00 0.00 83 1012.4
20260905213001 82 41 0.0 0.0 0.00 0.00 0.00 79 1011.6
20260905211500 86 46 0.0 0.0 0.00 0.00 0.00 76 1012.0
20260905210004 88 322 0.0 0.0 0.00 0.00 0.00 71 1011.4
20260905204500 89 307 0.0 0.0 0.00 0.00 0.00 70 1011.6
20260905203001 89 284 0.0 0.0 0.00 0.00 0.00 72 1011.7
20260905201500 89 290 0.0 0.0 0.00 0.00 0.00 72 1012.0
20260905200004 88 321 0.0 0.0 0.00 0.00 0.00 74 1012.2
20260905194502 87 318 0.0 0.0 0.00 0.00 0.00 75 1012.4
20260905193001 86 291 0.0 0.0 0.00 0.00 0.00 75 1012.6
20260905191500 87 303 0.0 0.0 0.00 0.00 0.00 75 1012.5
20260905190002 88 322 0.0 0.0 0.00 0.00 0.00 70 1012.7
20260905184500 88 277 0.0 0.0 0.00 0.00 0.00 69 1012.9
20260905174502 86 266 0.0 0.0 0.00 0.00 0.00 71 1013.3
20260905173000 84 245 0.0 0.0 0.00 0.00 0.00 72 1013.7
20260905171501 84 241 0.0 0.0 0.00 0.00 0.00 71 1013.8
20260905170003 83 237 0.0 0.0 0.00 0.00 0.00 73 1014.2
20260905164500 82 214 0.0 0.0 0.00 0.00 0.00 73 1014.4
20260905163001 82 225 0.0 0.0 0.00 0.00 0.00 75 1014.5
20260905161500 83 166 0.0 0.0 0.00 0.00 0.00 74 1014.4
20260905160003 82 228 0.0 0.0 0.00 0.00 0.00 74 1014.2
20260905154500 81 229 0.0 0.0 0.00 0.00 0.00 75 1014.2
20260905153000 80 201 0.0 0.0 0.00 0.00 0.00 78 1014.2
20260905151500 79 231 0.0 0.0 0.00 0.00 0.00 77 1014.1
20260905150003 78 198 0.0 0.0 0.00 0.00 0.00 79 1014.5
20260905144500 77 193 0.0 0.0 0.00 0.00 0.00 79 1014.2
20260905143000 77 165 0.0 0.0 0.00 0.00 0.00 80 1014.3
20260905141500 75 160 0.0 0.0 0.00 0.00 0.00 83 1014.0
20260905140005 75 174 0.0 0.0 0.00 0.00 0.00 83 1014.1
20260905134501 74 160 0.0 0.0 0.00 0.00 0.00 85 1013.9
20260905133000 73 108 0.0 0.0 0.00 0.00 0.00 86 1014.1